Weather History for Hattiesburg, MS

Change the Weather History Date:

Wednesday, February 20, 2013

  Actual Average Record
Temperature  
Mean Temperature 46 °F 53 °F  
Max Temperature 57 °F 65 °F 82 °F (2014)
Min Temperature 34 °F 41 °F 20 °F (1978)
Degree Days  
Heating Degree Days 19 12  
Month to date heating degree days 236 290  
Since 1 July heating degree days 1315 1589  
Cooling Degree Days 0 0  
Month to date cooling degree days 0 0  
Year to date cooling degree days 28 6  
Moisture  
Dew Point 29 °F    
Average Humidity 58    
Maximum Humidity 89    
Minimum Humidity 27    
Precipitation  
Precipitation 0.00 in 0.20 in 1.90 in (1996)
Month to date precipitation 7.83 3.82  
Year to date precipitation 15.76 9.56  
Sea Level Pressure  
Sea Level Pressure 30.20 in    
Wind  
Wind Speed 2 mph (NE)    
Max Wind Speed 12 mph    
Max Gust Speed 17 mph    
Visibility 9 miles    
Events      
T = Trace of Precipitation, MM = Missing Value Source: NWS Daily Summary

Daily Weather History Graph

Daily Weather History Graph

Search for Another Location

Airport:

Trip Planner

Search our weather history database for the weather conditions in past years. The results will help you decide how hot, cold, wet, or windy it might be!

Date:

Astronomy

Feb. 20, 2013 Rise Set
Actual Time 6:33 AM CST 5:48 PM CST
Civil Twilight 6:08 AM CST 6:13 PM CST
Nautical Twilight 5:40 AM CST 6:41 PM CST
Astronomical Twilight 5:12 AM CST 7:09 PM CST
Moon 1:21 PM CST 2:42 AM CST
Length of Visible Light 12h 04m
Length of Day
11h 15m
Waxing Gibbous, 76% of the Moon is Illuminated
Feb 20
Waxing Gibbous
Feb 25
Full
Mar 4
Last Quarter
Mar 11
New
Mar 19
First Quarter

Hourly Weather History & Observations

Time (CST) Temp. Windchill Dew Point Humidity Pressure Visibility Wind Dir Wind Speed Gust Speed Precip Events Conditions
12:53 AM 39.9 °F 37.8 °F 28.0 °F 63% 30.27 in 10.0 mi WNW 3.5 mph - N/A   Clear
1:53 AM 37.0 °F - 30.9 °F 79% 30.26 in 10.0 mi Calm Calm - N/A   Clear
2:53 AM 35.1 °F - 30.0 °F 82% 30.27 in 10.0 mi Calm Calm - N/A   Clear
3:53 AM 34.0 °F - 30.0 °F 85% 30.24 in 10.0 mi Calm Calm - N/A   Clear
4:53 AM 35.1 °F - 30.9 °F 85% 30.20 in 10.0 mi Calm Calm - N/A   Clear
5:53 AM 39.0 °F 36.8 °F 28.0 °F 65% 30.21 in 10.0 mi NNE 3.5 mph - N/A   Clear
6:53 AM 37.9 °F - 28.9 °F 70% 30.26 in 10.0 mi Calm Calm - N/A   Clear
7:53 AM 39.0 °F - 32.0 °F 76% 30.29 in 10.0 mi Calm Calm - N/A   Clear
8:53 AM 44.1 °F 42.5 °F 28.0 °F 53% 30.30 in 10.0 mi Variable 3.5 mph - N/A   Clear
9:53 AM 48.0 °F - 24.1 °F 39% 30.29 in 10.0 mi NE 8.1 mph - N/A   Clear
10:53 AM 51.1 °F - 23.0 °F 33% 30.29 in 10.0 mi Variable 6.9 mph - N/A   Clear
12:53 PM 55.0 °F - 23.0 °F 29% 30.17 in 10.0 mi ENE 9.2 mph - N/A   Clear
3:53 PM 55.9 °F - 24.1 °F 29% 30.14 in 4.0 mi ENE 9.2 mph - N/A   Haze
4:53 PM 54.0 °F - 25.0 °F 33% 30.15 in 4.0 mi NNE 4.6 mph - N/A   Haze
5:53 PM 51.1 °F - 28.0 °F 41% 30.15 in 10.0 mi NNE 3.5 mph - N/A   Clear
6:53 PM 48.0 °F - 30.0 °F 50% 30.16 in 10.0 mi Calm Calm - N/A   Clear
7:53 PM 42.1 °F 40.2 °F 34.0 °F 73% 30.13 in 10.0 mi SSE 3.5 mph - N/A   Clear
8:53 PM 42.1 °F - 32.0 °F 67% 30.14 in 10.0 mi Calm Calm - N/A   Clear
9:53 PM 39.0 °F - 33.1 °F 79% 30.13 in 10.0 mi Calm Calm - N/A   Clear
10:53 PM 41.0 °F - 30.0 °F 65% 30.12 in 10.0 mi Calm Calm - N/A   Clear
11:53 PM 39.0 °F - 32.0 °F 76% 30.11 in 10.0 mi Calm Calm - N/A   Clear